Location: Unspecified
(0.0000°N, 0.0000°E)
Time: 06:42:12
(UTC+02:00)

Iridium 76 - Visible Passes

Search period start: 26 June 2016 00:00
Search period end: 06 July 2016 00:00
Orbit: 776 x 779 km, 86.4° (Epoch: 25 June)

Date Brightness Start Highest point End Pass type
(mag) Time Alt. Az. Time Alt. Az. Time Alt. Az.
26 Jun 7.4 22:02:28 10° NNE 22:03:46 17° NNE 22:03:46 17° NNE visible
27 Jun 7.6 21:30:20 10° NE 21:30:50 12° NE 21:30:50 12° NE visible
27 Jun 8.2 23:10:09 10° NW 23:11:20 15° NW 23:11:20 15° NW visible
28 Jun 7.1 22:35:46 10° NNW 22:38:25 29° NNW 22:38:25 29° NNW visible
29 Jun 6.3 22:02:13 10° N 22:05:32 39° NNE 22:05:32 39° NNE visible
30 Jun 6.6 21:29:26 10° NNE 21:32:42 27° ENE 21:32:42 27° ENE visible
30 Jun 8.2 23:11:28 10° NW 23:13:13 14° WNW 23:13:13 14° WNW visible
01 Jul 7.3 20:58:03 10° ENE 20:59:53 13° E 20:59:53 13° E visible
01 Jul 7.0 22:36:16 10° NNW 22:40:24 32° WNW 22:40:24 32° WNW visible
02 Jul 5.5 22:02:15 10° N 22:07:27 75° W 22:07:38 74° WSW visible
03 Jul 5.7 21:28:59 10° NNE 21:33:59 48° E 21:34:55 43° ESE visible
04 Jul 6.7 20:56:36 10° NE 21:00:33 22° E 21:02:15 19° ESE visible
04 Jul 7.8 22:37:09 10° NW 22:40:57 21° W 22:42:47 17° WSW visible
05 Jul 6.5 22:02:33 10° NNW 22:07:30 46° W 22:10:10 25° SSW visible
